[[{"header":{"parameterUnit":"m.s-1","parameterCategory":1,"la1":30.2991,"la2":30.254,"lo1":-89.0895,"lo2":-89.0444,"dy":0.0017,"dx":0.0017,"nx":28,"ny":28,"refTime":"2024-02-09T09:00:00:Z","depth":0,"parameterNumber":2,"parameterNumberName":"U-component_of_WINDS"},"data":[0,0,0,0,0,0,0,0,0,0,0,0,0,0,0,0,0,0,0,0,0,0,0,0,0,0,0,0,0,0,0,0,0,0,0,0,0,0,0,0,0,0,0,0,0,0,0,0,0,0,0,0,0,0,0,0,0,0,-0.3616,-0.3615,0,-0.3582,-0.3582,-0.3581,-0.3569,-0.3569,-0.3569,-0.3569,-0.3536,-0.3535,-0.3534,0,0,0,0,0,0,0,0,0,0,0,0,0,-0.3668,-0.3668,-0.3616,-0.3615,-0.3615,-0.3582,-0.3582,-0.3581,-0.3569,-0.3569,-0.3569,-0.3569,-0.3536,-0.3535,-0.3533,0,0,0,0,0,0,0,0,0,0,0,0,0,-0.3641,-0.3667,-0.3616,-0.3605,-0.3603,-0.3582,-0.3582,-0.3581,-0.3569,-0.3569,-0.3569,-0.3569,-0.3536,-0.3535,-0.3533,-0.3521,0,0,-0.3529,-0.3528,0,0,0,0,0,0,0,0,-0.3643,-0.3639,-0.3607,-0.3606,-0.3604,-0.358,-0.3588,-0.3561,-0.3569,-0.3582,-0.3569,-0.357,-0.355,-0.3548,-0.3541,-0.3519,-0.3518,-0.3529,-0.3528,-0.3527,-0.3527,0,0,0,0,0,0,0,-0.3645,-0.3641,-0.3603,-0.3606,-0.3605,-0.3601,-0.3598,-0.3583,-0.3566,-0.3581,-0.358,-0.3576,-0.3549,-0.3542,-0.354,-0.3517,-0.3529,-0.3527,-0.3526,-0.3526,-0.3482,-0.3482,0,0,0,0,0,0,-0.3648,-0.3642,-0.3604,-0.3602,-0.3624,-0.36,-0.3596,-0.3588,-0.3566,-0.3563,-0.3576,-0.3576,-0.3545,-0.3542,-0.3539,-0.3522,-0.3527,-0.3526,-0.3525,-0.3482,-0.3482,-0.3482,0,0,0,0,0,0,-0.365,-0.3645,-0.3605,-0.3622,-0.3616,-0.3599,-0.359,-0.3587,-0.358,-0.3562,-0.3559,-0.3572,-0.3545,-0.3541,-0.3525,-0.352,-0.3525,-0.3524,-0.3483,-0.3482,-0.3482,-0.3488,0,0,0,0,0,0,-0.3651,-0.3646,-0.3641,-0.3622,-0.3615,-0.3592,-0.3589,-0.3586,-0.3577,-0.3576,-0.3557,-0.3555,-0.3545,-0.3527,-0.3524,-0.3518,-0.3522,-0.3483,-0.3482,-0.3482,-0.3488,-0.3488,-0.3487,0,0,0,0,0,-0.3653,-0.3645,-0.3641,-0.3636,-0.3609,-0.3592,-0.3588,-0.3577,-0.3577,-0.3572,-0.356,-0.3555,-0.3522,-0.3526,-0.3521,-0.3516,-0.3483,-0.3483,-0.3482,-0.3488,-0.3488,-0.3487,0,0,0,0,0,0,-0.3664,-0.3642,-0.3638,-0.3622,-0.3609,-0.359,-0.3583,-0.3577,-0.3564,-0.3563,-0.355,-0.3546,-0.3531,-0.3522,-0.3527,-0.3502,-0.3502,-0.35,-0.3508,-0.3508,-0.3507,-0.351,-0.3521,0,0,0,0,0,-0.3665,-0.3653,-0.3634,-0.3622,-0.3615,-0.36,-0.3592,-0.3585,-0.357,-0.3565,-0.3552,-0.3538,-0.3524,-0.3516,-0.3502,-0.3487,-0.3482,-0.3481,-0.348,-0.348,-0.3479,-0.3469,-0.3467,-0.348,-0.348,-0.348,0,0,-0.3667,-0.3653,-0.3646,-0.3624,-0.3613,-0.36,-0.3596,-0.3583,-0.3573,-0.3563,-0.3546,-0.3537,-0.352,-0.3504,-0.3497,-0.3496,-0.3474,-0.3479,-0.3479,-0.3478,-0.3468,-0.3467,-0.3466,-0.3479,-0.3479,-0.3479,0,0,-0.3662,-0.3651,-0.3639,-0.3628,-0.361,-0.36,-0.3597,-0.3578,-0.3571,-0.3554,-0.3546,-0.3534,-0.3511,-0.3499,-0.349,-0.348,-0.3474,-0.3476,-0.3474,-0.3464,-0.3463,-0.3463,-0.3458,-0.3456,-0.3475,-0.3475,-0.3475,0,-0.3666,-0.3646,-0.3634,-0.3621,-0.3611,-0.3601,-0.3588,-0.3578,-0.3557,-0.355,-0.355,-0.352,-0.3508,-0.3488,-0.3486,-0.3479,-0.3475,-0.3478,-0.3465,-0.3464,-0.3462,-0.3458,-0.3456,-0.3475,-0.3475,-0.3475,-0.3475,0,-0.3651,-0.3637,-0.363,-0.3609,-0.3599,-0.3586,-0.3572,-0.3562,-0.3555,-0.3545,-0.3527,-0.3513,-0.3496,-0.349,-0.3484,-0.3469,-0.3469,-0.3467,-0.3467,-0.3462,-0.3457,-0.3455,-0.3475,-0.3475,-0.3475,-0.3475,0,0,-0.3654,-0.3625,-0.3623,-0.3612,-0.3592,-0.3581,-0.3567,-0.355,-0.3541,-0.3527,-0.3515,-0.3495,-0.3492,-0.3482,-0.3474,-0.3465,-0.3456,-0.3464,-0.3463,-0.3462,-0.3438,-0.3439,-0.3437,-0.3452,-0.3452,-0.3452,-0.3439,0,-0.3646,-0.3621,-0.3609,-0.3589,-0.3575,-0.3564,-0.3552,-0.3538,-0.3528,-0.3515,-0.3503,-0.3489,-0.3487,-0.348,-0.3471,-0.3459,-0.3451,-0.346,-0.344,-0.344,-0.3444,-0.3435,-0.3436,-0.3424,-0.3437,-0.3436,-0.3436,0,-0.3634,-0.3618,-0.3597,-0.3576,-0.357,-0.3559,-0.3541,-0.3529,-0.3512,-0.3505,-0.3493,-0.3485,-0.347,-0.3471,-0.3449,-0.3455,-0.3446,-0.3439,-0.3438,-0.3435,-0.3437,-0.343,-0.342,-0.3418,-0.3433,-0.3434,-0.3434,0,-0.3636,-0.361,-0.3594,-0.3585,-0.3561,-0.3554,-0.3543,-0.3527,-0.3516,-0.3501,-0.3494,-0.3477,-0.3467,-0.3454,-0.3441,-0.3444,-0.342,-0.3421,-0.3413,-0.3414,-0.3409,-0.3409,-0.3396,-0.3405,-0.3405,-0.3405,-0.3405,0,-0.3629,-0.3616,-0.3594,-0.3584,-0.3568,-0.3554,-0.3539,-0.3528,-0.3513,-0.35,-0.349,-0.3478,-0.3463,-0.3448,-0.3439,-0.3421,-0.3417,-0.3411,-0.3408,-0.3411,-0.3412,-0.3405,-0.3405,-0.3404,-0.3404,-0.3404,-0.3404,0,-0.3629,-0.3614,-0.3595,-0.3573,-0.3567,-0.3557,-0.3538,-0.3527,-0.3516,-0.3499,-0.3494,-0.3477,-0.3459,-0.3445,-0.3423,-0.3416,-0.3398,-0.3395,-0.3403,-0.3401,-0.3394,-0.3395,-0.3376,-0.3372,-0.3384,-0.3384,-0.3384,0,-0.3625,-0.3614,-0.359,-0.358,-0.357,-0.3554,-0.3543,-0.3529,-0.3518,-0.3497,-0.3488,-0.347,-0.3455,-0.3427,-0.3412,-0.3395,-0.3391,-0.3386,-0.3389,-0.3391,-0.339,-0.339,-0.3388,-0.3385,-0.3385,-0.3385,-0.3385,0,-0.3618,-0.3611,-0.3595,-0.3576,-0.3563,-0.3548,-0.3532,-0.3525,-0.3507,-0.3495,-0.3477,-0.3465,-0.3441,-0.3423,-0.3403,-0.3392,-0.3385,-0.3384,-0.3381,-0.3384,-0.3388,-0.3385,-0.3401,-0.3385,-0.3385,-0.3385,-0.3385,-0.3385,-0.3615,-0.3604,-0.3585,-0.3568,-0.3554,-0.3539,-0.3528,-0.3514,-0.3499,-0.3478,-0.347,-0.3451,-0.3433,-0.3406,-0.3395,-0.338,-0.3379,-0.3375,-0.3374,-0.3373,-0.3373,-0.3391,-0.3376,-0.3376,-0.3376,-0.3376,-0.3376,0,-0.3607,-0.3594,-0.3578,-0.3555,-0.3541,-0.3535,-0.3517,-0.3506,-0.3489,-0.3473,-0.3457,-0.3435,-0.3417,-0.34,-0.3381,-0.3372,-0.3368,-0.3367,-0.3367,-0.3365,-0.3375,-0.3379,-0.337,-0.337,-0.337,-0.337,-0.337,-0.337,-0.3601,-0.3582,-0.3572,-0.3546,-0.3533,-0.3514,-0.3504,-0.349,-0.3476,-0.3452,-0.3437,-0.3425,-0.3409,-0.3388,-0.3371,-0.3366,-0.3359,-0.3359,-0.3353,-0.3363,-0.3364,-0.3365,-0.3368,-0.3358,-0.3358,-0.3344,-0.3344,-0.3344]},{"header":{"parameterUnit":"m.s-1","parameterCategory":1,"la1":30.2991,"la2":30.254,"lo1":-89.0895,"lo2":-89.0444,"dy":0.0017,"dx":0.0017,"nx":28,"ny":28,"refTime":"2024-02-09T09:00:00:Z","depth":0,"parameterNumber":3,"parameterNumberName":"V-component_of_WINDS"},"data":[0,0,0,0,0,0,0,0,0,0,0,0,0,0,0,0,0,0,0,0,0,0,0,0,0,0,0,0,0,0,0,0,0,0,0,0,0,0,0,0,0,0,0,0,0,0,0,0,0,0,0,0,0,0,0,0,0,0,2.2881,2.2881,0,2.2923,2.2923,2.2924,2.2948,2.2948,2.2948,2.2948,2.2989,2.299,2.2991,0,0,0,0,0,0,0,0,0,0,0,0,0,2.282,2.2821,2.2881,2.2881,2.2882,2.2923,2.2923,2.2924,2.2948,2.2948,2.2948,2.2948,2.2989,2.299,2.2991,0,0,0,0,0,0,0,0,0,0,0,0,0,2.2853,2.2822,2.288,2.2899,2.2901,2.2923,2.2923,2.2924,2.2948,2.2948,2.2948,2.2948,2.2988,2.299,2.2991,2.2998,0,0,2.2996,2.2997,0,0,0,0,0,0,0,0,2.2851,2.2855,2.2895,2.2897,2.29,2.293,2.2917,2.2949,2.2948,2.293,2.2948,2.2948,2.2969,2.2972,2.298,2.3,2.3002,2.2996,2.2997,2.2998,2.2998,0,0,0,0,0,0,0,2.2849,2.2853,2.2897,2.2896,2.2899,2.2904,2.2909,2.2923,2.2948,2.2931,2.2933,2.2938,2.297,2.2978,2.2981,2.3002,2.2996,2.2997,2.2998,2.2999,2.3033,2.3033,0,0,0,0,0,0,2.2844,2.2851,2.2896,2.2899,2.2875,2.2905,2.2911,2.292,2.2948,2.2952,2.2938,2.2939,2.2976,2.2979,2.2983,2.2994,2.2998,2.2999,2.3,2.3033,2.3033,2.3033,0,0,0,0,0,0,2.2842,2.2847,2.2894,2.2876,2.2882,2.2906,2.2917,2.2921,2.2929,2.2953,2.2957,2.2941,2.2976,2.298,2.2995,2.2996,2.3,2.3001,2.3033,2.3033,2.3033,2.3016,0,0,0,0,0,0,2.284,2.2847,2.2849,2.2875,2.2883,2.2906,2.2917,2.2922,2.2932,2.2934,2.2958,2.2962,2.2976,2.2992,2.2996,2.2998,2.3002,2.3033,2.3033,2.3033,2.3016,2.3015,2.3014,0,0,0,0,0,2.2838,2.2842,2.2849,2.2855,2.2887,2.2906,2.291,2.2927,2.2932,2.2935,2.2951,2.2961,2.2995,2.2994,2.2998,2.3,2.3033,2.3033,2.3033,2.3017,2.3015,2.3014,0,0,0,0,0,0,2.2814,2.2846,2.2854,2.2867,2.2884,2.291,2.2914,2.2925,2.294,2.2941,2.2962,2.2967,2.298,2.2991,2.2989,2.3009,2.3015,2.3016,2.3001,2.3,2.2999,2.2996,2.3004,0,0,0,0,0,2.2811,2.2824,2.285,2.2859,2.2867,2.2889,2.2898,2.291,2.2928,2.2935,2.2952,2.2968,2.2983,2.2992,2.3007,2.3018,2.3024,2.3022,2.3021,2.302,2.302,2.3029,2.3029,2.3032,2.3032,2.3032,0,0,2.2803,2.2822,2.2828,2.2854,2.2869,2.2882,2.2895,2.2907,2.2918,2.2937,2.2952,2.2965,2.2985,2.2998,2.3005,2.3008,2.3021,2.302,2.3019,2.302,2.3029,2.3029,2.3028,2.3032,2.3032,2.3032,0,0,2.2796,2.2811,2.282,2.2835,2.2858,2.2873,2.2875,2.29,2.291,2.2926,2.2941,2.2953,2.2978,2.2992,2.3003,2.3004,2.3014,2.3008,2.3002,2.301,2.301,2.301,2.3011,2.3012,2.3008,2.3008,2.3008,0,2.2783,2.2804,2.2824,2.2837,2.2848,2.2868,2.2878,2.2891,2.2917,2.2924,2.2928,2.2961,2.2975,2.2993,2.2994,2.3001,2.3005,2.3005,2.3008,2.3009,2.3009,2.301,2.3011,2.3007,2.3007,2.3007,2.3007,0,2.2788,2.2802,2.2807,2.2834,2.2846,2.2857,2.2879,2.2889,2.2901,2.2916,2.2932,2.2951,2.2971,2.2976,2.2987,2.2996,2.2998,2.3005,2.3011,2.3007,2.3009,2.301,2.3006,2.3006,2.3007,2.3007,0,0,2.2765,2.2804,2.2806,2.2819,2.2846,2.2858,2.2871,2.2891,2.29,2.2917,2.2929,2.2951,2.2958,2.297,2.2983,2.299,2.2992,2.2996,2.2997,2.2996,2.3005,2.3,2.3,2.2999,2.2999,2.2999,2.3003,0,2.2763,2.2788,2.2807,2.2825,2.284,2.2859,2.2871,2.2889,2.2903,2.2918,2.2934,2.2949,2.2957,2.2965,2.2973,2.299,2.2994,2.299,2.301,2.3011,2.3005,2.3001,2.2996,2.2999,2.3004,2.3004,2.3004,0,2.2763,2.2782,2.2801,2.2829,2.2836,2.2846,2.2868,2.2881,2.2903,2.2913,2.2928,2.2941,2.2957,2.2961,2.2983,2.298,2.299,2.2999,2.3,2.3003,2.3008,2.3005,2.3,2.3001,2.3006,2.3006,2.3006,0,2.2747,2.2776,2.2793,2.2803,2.2835,2.2843,2.2856,2.2878,2.289,2.2909,2.2917,2.2936,2.2947,2.2962,2.2982,2.2983,2.3002,2.3008,2.3011,2.3011,2.3014,2.3014,2.3012,2.3019,2.3019,2.3019,2.3019,0,2.2742,2.2754,2.2786,2.2796,2.281,2.2832,2.2845,2.2861,2.288,2.2894,2.2912,2.2924,2.2948,2.2963,2.2978,2.2995,2.2999,2.3009,2.3012,2.3007,2.3006,2.3014,2.3015,2.3019,2.3019,2.3019,2.3019,0,2.2726,2.2748,2.2767,2.2797,2.2805,2.2814,2.284,2.2851,2.2867,2.2884,2.289,2.2915,2.2934,2.2955,2.2981,2.2991,2.3007,2.3012,2.3,2.3003,2.3005,2.3005,2.3009,2.3011,2.3016,2.3016,2.3016,0,2.2722,2.2732,2.2763,2.2775,2.2788,2.2805,2.2818,2.2841,2.2854,2.288,2.2888,2.2909,2.2927,2.2957,2.2978,2.2998,2.3004,2.3004,2.3007,2.3002,2.3005,2.3005,2.3007,2.3003,2.3003,2.3003,2.3003,0,2.2713,2.2724,2.2742,2.2765,2.2781,2.2799,2.2818,2.2826,2.2853,2.2866,2.2887,2.2901,2.2929,2.295,2.2973,2.2987,2.2999,2.3002,2.3004,2.2999,2.2992,2.2997,2.2998,2.3001,2.3001,2.3002,2.3002,2.3002,2.2704,2.2714,2.2739,2.2759,2.2777,2.2795,2.2807,2.2826,2.2844,2.2869,2.2881,2.2902,2.2925,2.2958,2.2972,2.2989,2.2992,2.2995,2.2996,2.2996,2.2996,2.2989,2.2993,2.2993,2.2993,2.2993,2.2993,0,2.2697,2.2714,2.2733,2.276,2.2777,2.2788,2.2811,2.2824,2.2842,2.2863,2.2881,2.2906,2.2927,2.295,2.2972,2.2981,2.2988,2.2987,2.2986,2.299,2.299,2.2987,2.2981,2.2981,2.2981,2.2981,2.2981,2.2981,2.2695,2.2714,2.2728,2.2756,2.2774,2.2795,2.2808,2.2825,2.2842,2.2869,2.2887,2.2902,2.2924,2.2949,2.2969,2.2975,2.2983,2.298,2.2988,2.2988,2.2989,2.299,2.2987,2.2982,2.2982,2.2986,2.2986,2.2986]}]]